Terminal Aerodrome Forecast
Issued by NWS

Home | Current Version | Previous Version | Text Only | Print | Product List | Glossary On
Versions: 1 2 3 4 5 6 7 8 9 10 11 12 13 14 15 16 17 18 19 20 21 22 23 24 25 26 27 28 29 30 31 32 33 34 35 36 37 38 39 40 41 42 43 44 45 46 47 48 49
000
FTUS43 KPAH 051128
TAFOWB
TAF
KOWB 051128Z 0512/0612 00000KT 1SM BR BKN035
      TEMPO 0512/0513 2SM BR
     FM051300 VRB02KT 4SM HZ BKN035
     FM051500 05004KT 6SM HZ BKN040
     FM060600 VRB02KT 4SM BR SCT250=

USA.gov is the U.S. government's official web portal to all federal, state and local government web resources and services.